SCP
0 0 0 0 0 0 0 0 0 -0 0 0 0 0 0 0 0 0 0 0 0 0 -0 0 0 0 0 0 0 0 -0 -0 0 0 0 0 0 0 0 0 0 0 -0
0 0 0 0 0 0 0 0 0 0 0 0 0 0 0 0 0 0 0 0 0 0 0 -0 0 0 -0 0 0 -0 -0 0 -0 0 0 0 0 0 0 0 0 0 -0
0 0 0 0 0 0 0 0 0 0 0 0 0 0 0 0 0 0 0 0 0 0 -0 -0 -0 0 -0 0 0 -0 -0 -0 0 0 0 0 0 0 0 -0 0 0 0
0 0 0 0 0 0 0 0 0 0 0 0 0 0 0 0 0 0 0 0 0 0 0 0 0 0 -0 -0 -0 -0 0 -0 0 0 0 0 0 0 -0 0 -0 -0 0
0 0 0 0 0 0 0 0 0 0 0 0 0 0 0 0 0 0 0 0 0 0 0 0 -0 -0 -0 -0 0 0 0 -0 0 0 0 0 0 0 -0 -0 -0 -0 0
0 0 0 0 0 0 0 0 0 0 0 0 0 0 0 0 0 0 0 0 0 0 -0 -0 -0 0 -0 -0 0 0 0 0 0 0 -0 0 0 0 0 0 0 0 0
0 -0 -0 -0 0 0 0 0 0 0 0 0 0 0 -0 0 -0 0 0 0 -0 -0 0 -0 -0 -0 0 0 0 0 0 0 -0 0 0 -0 0 -0 -0 -0 -0 -0 0
0 0 -0 -0 0 0 0 0 0 0 0 0 -0 -0 0 -0 -0 -0 -0 -0 0 -0 -0 -0 0 0 0 0 0 0 0 0 0 -0 0 -0 0 0 0 0 0 0 0
0 0 -0 -0 -0 -0 -0 -0 -0 -0 0 0 0 -0 -0 -0 -0 -0 0 0 0 -0 -0 -0 0 0 0 0 0 0 0 0 0 0 0 0 -0 0 0 0 0 0 0
0 -0 -0 -0 -0 -0 -0 -0 -0 -0 -0 0 0 0 0 0 0 0 0 0 0 0 0 0 0 0 0 0 0 0 0 -0 0 0 0 0 0 0 0 0 0 0 0
-0 -0 -0 -0 -0 -0 -0 -0 0 0 0 0 0 0 0 0 0 0 0 0 0 0 0 0 0 0 0 0 0 0 0 0 0 0 0 0 0 0 0 0 0 0 0
-0 -0 -0 -0 0 0 0 0 0 0 0 0 0 0 0 0 0 0 0 0 0 0 0 0 0 0 0 0 0 0 0 0 0 0 0 0 0 0 0 0 0 0 0
-0 -0 -0 0 0 0 0 0 0 0 0 0 0 0 0 0 0 0 0 0 0 0 0 0 0 0 0 0 0 0 0 0 0 0 0 0 0 0 0 0 0 0 -0
0 0 0 0 0 0 0 0 0 0 0 0 0 0 0 0 0 0 0 0 0 0 0 0 0 0 0 0 0 0 0 0 0 0 0 0 0 0 0 0 0 0 0
0 0 0 0 0 0 0 0 0 0 0 0 0 0 0 0 0 0 0 0 0 0 0 0 0 0 0 0 0 0 0 0 0 0 0 0 0 0 0 0 0 0 0
0 0 0 0 0 0 0 0 0 0 0 0 0 0 0 0 0 0 0 0 0 0 0 0 0 0 0 0 0 0 0 0 0 0 0 0 0 0 0 0 0 0 0
0 0 0 0 0 0 0 0 0 0 0 0 0 0 0 0 0 0 0 0 0 0 0 0 0 0 0 0 0 0 0 0 0 0 0 0 0 0 0 0 0 0 0
0 0 0 0 0 0 0 0 0 0 0 0 0 0 0 0 0 0 0 0 0 0 0 0 0 0 0 0 0 0 0 0 0 0 0 0 0 0 0 0 0 0 0
0 0 0 0 0 0 0 0 0 0 0 0 0 0 0 0 0 0 0 0 0 0 0 0 0 0 0 0 0 0 0 0 0 0 0 0 0 0 0 0 0 0 0
0 0 0 0 0 0 0 0 0 0 0 0 0 0 0 0 0 0 0 0 0 0 0 0 0 0 0 0 0 0 0 0 0 0 0 0 0 0 0 0 0 0 0
0 0 0 0 0 0 0 0 0 0 0 0 0 0 0 0 0 0 0 0 0 0 0 0 0 0 0 0 0 0 0 0 0 0 0 0 0 0 0 0 0 0 -0
0 0 0 0 0 0 0 0 0 0 0 0 0 0 0 0 0 0 0 0 0 0 0 0 0 0 0 0 0 0 0 0 0 0 0 0 0 0 -0 -0 -0 0 0
0 0 0 0 0 0 0 0 0 0 0 0 0 0 0 0 0 0 0 0 0 0 0 0 0 0 0 0 0 0 0 0 0 0 0 0 0 0 0 0 0 0 0
0 0 0 0 0 0 0 0 0 0 0 0 0 0 0 0 0 0 0 0 0 0 0 0 0 0 0 0 0 0 0 0 0 0 0 0 0 0 0 0 0 0 0
0 0 0 0 0 0 0 0 0 0 0 0 0 0 0 0 0 0 0 0 0 0 0 0 0 0 0 0 0 0 0 0 0 0 0 0 0 0 0 0 0 0 0
0 0 0 0 0 0 0 0 0 0 0 0 0 0 0 0 0 0 0 0 0 0 0 0 0 -0 0 0 0 0 0 0 0 0 0 0 0 0 0 0 0 0 0
Wind_Speed_500mb
21 22 25 22 19 20 23 25 27 28 28 29 27 27 24 20 18 18 19 18 18 22 22 25 22 29 33 31 31 29 27 27 36 34 19 15 21 27 27 17 15 22 34
24 26 24 20 21 21 24 26 28 27 28 28 24 21 16 12 13 14 18 21 26 26 24 23 22 27 39 32 31 29 23 25 30 38 13 9 19 23 21 19 17 18 25
27 25 24 24 23 25 26 26 26 26 30 26 19 14 10 10 10 14 19 22 25 26 22 20 24 28 37 35 28 28 25 24 32 18 12 10 22 19 20 17 13 14 16
32 33 22 25 23 27 26 23 24 24 25 27 23 17 15 12 8 14 19 23 27 21 18 20 23 30 37 35 29 21 23 28 16 12 6 8 15 19 23 20 19 19 20
33 31 29 31 30 31 23 22 22 23 25 26 23 21 18 11 13 28 26 24 27 18 19 20 23 27 38 46 30 20 15 20 6 3 5 11 13 13 16 17 26 23 24
32 35 37 35 35 28 24 22 22 24 26 26 24 18 17 16 26 26 29 27 24 19 19 23 23 21 30 31 22 19 16 9 6 2 17 17 18 18 21 15 9 8 19
36 36 37 36 32 25 25 20 24 27 28 22 22 24 22 26 32 31 28 23 24 16 17 28 22 21 21 19 14 12 9 10 9 9 10 13 13 20 22 17 22 25 33
34 33 30 28 25 24 25 28 27 27 26 23 28 29 26 21 27 22 9 9 12 13 14 21 23 15 14 10 8 7 8 12 17 18 8 11 14 15 24 21 20 27 31
28 29 28 25 28 30 28 28 27 30 28 27 25 24 17 20 18 15 15 13 12 14 15 20 14 12 11 12 10 16 20 22 22 16 14 15 14 13 16 16 21 24 25
27 26 26 27 27 35 30 30 32 27 23 18 13 17 18 18 19 14 7 10 9 5 11 13 15 19 18 16 19 22 23 25 19 18 17 11 11 11 9 12 15 24 23
25 22 28 31 28 25 28 27 30 21 14 14 18 24 24 24 23 20 16 14 15 19 22 28 34 31 29 28 26 26 26 20 17 13 10 14 15 18 19 17 23 29 22
29 29 28 30 30 25 24 28 27 26 29 26 26 23 22 18 25 24 24 23 24 27 34 37 38 38 32 28 28 26 24 22 16 19 12 19 23 31 34 32 28 12 14
24 21 26 24 26 25 26 28 28 29 30 24 24 20 23 27 28 30 33 36 36 37 37 36 30 29 30 30 26 17 12 10 13 19 33 41 46 42 37 36 40 38 37
23 22 25 29 31 36 31 34 31 31 31 28 27 29 34 36 34 34 38 35 30 30 30 31 32 30 29 34 35 37 37 35 40 48 48 41 35 29 23 24 25 29 30
32 31 26 26 33 43 46 43 41 41 37 36 39 38 38 38 38 32 28 26 25 24 24 28 31 35 42 50 46 49 56 50 47 41 36 28 24 23 22 21 20 20 22
31 32 32 35 36 34 41 46 45 43 39 36 34 33 32 33 31 31 31 33 38 50 66 75 73 69 61 47 48 49 37 30 27 25 25 25 24 21 22 22 21 21 22
33 31 31 30 26 28 26 30 29 33 35 35 36 36 36 37 39 42 47 61 60 53 52 48 41 39 37 34 34 34 32 25 27 28 26 24 23 22 22 20 20 23 23
31 33 32 27 26 24 26 31 37 42 54 61 54 49 52 54 59 69 72 57 46 44 40 39 43 47 44 40 37 36 32 29 28 27 26 22 22 24 17 21 21 16 17
37 34 34 37 37 39 44 50 54 57 66 76 84 78 65 62 62 59 51 44 51 51 45 43 42 41 39 35 32 31 30 29 27 27 29 25 22 16 14 17 17 20 21
30 32 36 41 46 46 48 52 60 52 45 41 38 34 34 35 43 50 48 45 43 39 36 38 38 37 36 34 34 28 29 34 33 28 23 21 22 19 20 22 21 20 19
34 42 47 52 53 52 47 40 45 41 43 49 50 51 47 46 47 44 43 44 46 48 43 36 34 33 34 32 33 31 30 29 28 30 26 24 22 22 21 21 21 19 23
39 53 53 48 45 43 44 32 32 40 39 41 41 42 41 39 38 37 35 35 35 34 34 35 32 34 33 34 31 29 28 33 32 31 29 28 23 23 23 23 25 24 24
36 30 32 36 36 34 29 32 38 38 39 38 36 35 34 34 33 33 33 33 33 34 37 39 38 36 36 36 38 37 30 26 32 34 30 28 28 26 25 25 25 25 25
22 27 29 28 23 28 37 35 38 36 33 33 32 33 34 35 36 37 35 35 35 35 35 36 40 42 40 39 39 37 36 35 33 33 29 28 29 27 26 26 27 27 26
22 24 24 18 32 39 30 28 28 30 31 32 33 33 33 33 34 34 33 33 34 34 36 37 34 35 36 36 36 36 31 28 29 31 31 29 25 27 27 26 26 26 28
22 19 26 32 27 24 25 24 26 28 29 28 28 30 31 31 31 32 31 31 30 31 31 32 32 31 31 32 32 30 28 26 26 32 31 26 27 29 25 27 28 26 27
Wind_Direction_500mb
321 317 311 311 315 312 311 310 304 296 292 293 292 292 301 297 298 305 317 314 304 313 317 324 331 332 333 332 324 321 312 309 314 328 293 336 350 355 353 1 25 49 48
321 314 314 308 315 311 310 309 310 312 311 308 305 299 300 302 307 326 318 315 306 299 300 314 317 324 329 335 327 321 316 313 315 319 251 345 9 4 1 10 26 51 60
326 315 313 318 319 321 324 327 335 335 331 327 326 317 313 316 332 328 328 318 315 299 293 310 317 322 319 328 329 318 312 328 318 297 246 24 2 16 17 16 19 43 68
328 326 325 309 320 323 327 336 329 328 326 330 329 323 325 325 317 326 325 321 318 306 297 309 317 310 322 327 330 324 333 330 341 348 129 30 21 26 26 36 44 59 67
333 330 330 319 319 314 317 320 328 338 344 344 338 332 322 330 281 302 306 319 318 316 320 318 318 321 319 326 326 325 325 315 30 355 77 17 24 8 4 28 47 52 71
333 329 328 319 316 318 318 326 330 336 337 345 338 332 350 322 296 294 299 308 317 310 319 325 320 330 315 322 329 339 345 351 93 111 95 59 19 22 25 22 350 351 69
331 333 327 328 335 330 322 339 345 346 343 329 325 321 320 308 302 306 289 292 310 302 323 330 333 315 313 320 336 352 355 40 71 109 98 41 25 35 29 58 85 90 92
333 335 338 344 355 349 336 342 344 337 328 329 327 330 329 341 335 337 313 322 327 346 351 317 322 332 334 355 25 33 82 75 103 121 112 40 49 55 59 78 74 91 96
340 343 346 358 355 355 354 350 338 338 327 326 333 353 17 355 12 22 37 30 34 4 323 326 355 357 35 85 72 95 103 97 115 103 77 62 50 53 51 52 79 97 85
354 357 3 1 352 343 347 339 334 337 340 340 19 22 23 39 15 11 347 21 8 339 11 31 55 76 77 85 82 94 97 96 103 96 83 51 36 18 28 77 95 96 76
354 6 2 353 354 337 345 357 357 1 21 37 55 53 46 37 20 30 41 58 76 68 62 71 76 73 75 77 86 86 82 85 89 87 78 44 39 56 79 83 85 66 43
356 354 358 354 360 21 28 19 30 51 60 61 46 44 30 13 26 54 63 70 78 75 78 79 81 75 76 83 89 86 78 59 63 74 68 86 81 71 86 78 69 89 107
4 355 0 30 44 32 27 35 46 63 65 48 43 33 46 46 60 65 69 71 73 77 76 71 74 67 57 68 65 73 99 116 98 97 92 93 85 73 72 68 64 61 69
23 35 45 59 47 36 52 55 59 60 63 53 57 60 64 66 68 74 73 67 61 63 66 67 62 54 68 67 72 75 81 88 96 91 90 82 61 54 63 57 57 52 59
51 61 45 56 62 59 64 71 67 65 61 63 65 64 65 60 55 55 58 72 79 78 76 79 79 80 79 83 77 79 76 78 80 66 50 53 59 57 53 55 64 66 64
63 51 61 68 71 63 64 63 61 59 56 56 57 64 56 58 56 58 65 75 81 90 91 81 74 72 79 74 58 54 63 65 57 54 52 55 55 56 56 57 55 54 55
57 58 71 73 65 64 49 51 51 52 57 57 61 65 67 71 75 75 82 89 84 79 77 70 68 69 67 67 65 64 60 59 61 59 55 53 55 52 54 51 42 43 48
59 66 70 76 75 62 69 72 79 75 72 65 65 69 76 78 83 86 83 78 63 56 63 67 69 68 64 60 57 55 53 59 52 52 48 45 51 46 39 53 44 38 26
67 60 70 79 82 82 82 83 81 80 74 77 80 82 79 80 75 67 73 66 68 67 66 66 66 63 58 54 56 53 52 52 56 50 47 44 47 41 31 11 27 24 344
67 76 80 84 88 88 90 87 75 72 68 60 56 68 71 61 68 73 74 64 60 57 57 52 50 55 49 47 47 46 43 37 39 38 33 18 15 23 21 11 25 12 14
74 85 84 84 88 91 88 71 70 69 73 70 69 73 76 75 70 64 57 54 50 48 48 48 47 42 40 34 37 35 34 27 23 21 18 13 11 14 11 10 17 19 11
91 90 69 64 77 80 70 70 64 73 72 72 70 70 71 69 66 61 57 54 51 47 43 42 41 39 35 32 31 31 34 30 24 23 22 23 24 22 18 19 20 18 18
87 59 52 60 66 67 70 67 73 71 69 66 66 65 63 61 59 55 52 50 49 47 43 44 44 42 42 38 33 33 37 41 26 27 27 29 29 30 28 27 26 25 21
78 79 71 74 85 87 79 70 67 68 64 63 62 62 61 60 58 55 55 51 49 48 49 46 41 41 46 45 45 42 44 50 55 44 27 30 30 31 29 28 26 25 22
86 73 75 82 105 84 61 65 64 64 64 65 64 63 62 59 58 56 53 51 51 47 44 43 45 40 42 42 41 41 42 50 58 49 39 25 27 27 25 23 20 17 16
77 73 96 106 95 69 62 64 66 65 65 67 65 64 60 58 56 53 50 48 45 42 41 33 30 29 27 26 24 22 27 38 50 48 33 22 24 17 23 15 13 11 8
Wind_Speed_850mb
21 22 25 22 19 20 23 25 27 28 28 29 27 27 24 20 18 18 19 18 18 22 22 25 22 29 33 31 31 29 27 27 36 34 19 15 21 27 27 17 15 22 34
24 26 24 20 21 21 24 26 28 27 28 28 24 21 16 12 13 14 18 21 26 26 24 23 22 27 39 32 31 29 23 25 30 38 13 9 19 23 21 19 17 18 25
27 25 24 24 23 25 26 26 26 26 30 26 19 14 10 10 10 14 19 22 25 26 22 20 24 28 37 35 28 28 25 24 32 18 12 10 22 19 20 17 13 14 16
32 33 22 25 23 27 26 23 24 24 25 27 23 17 15 12 8 14 19 23 27 21 18 20 23 30 37 35 29 21 23 28 16 12 6 8 15 19 23 20 19 19 20
33 31 29 31 30 31 23 22 22 23 25 26 23 21 18 11 13 28 26 24 27 18 19 20 23 27 38 46 30 20 15 20 6 3 5 11 13 13 16 17 26 23 24
32 35 37 35 35 28 24 22 22 24 26 26 24 18 17 16 26 26 29 27 24 19 19 23 23 21 30 31 22 19 16 9 6 2 17 17 18 18 21 15 9 8 19
36 36 37 36 32 25 25 20 24 27 28 22 22 24 22 26 32 31 28 23 24 16 17 28 22 21 21 19 14 12 9 10 9 9 10 13 13 20 22 17 22 25 33
34 33 30 28 25 24 25 28 27 27 26 23 28 29 26 21 27 22 9 9 12 13 14 21 23 15 14 10 8 7 8 12 17 18 8 11 14 15 24 21 20 27 31
28 29 28 25 28 30 28 28 27 30 28 27 25 24 17 20 18 15 15 13 12 14 15 20 14 12 11 12 10 16 20 22 22 16 14 15 14 13 16 16 21 24 25
27 26 26 27 27 35 30 30 32 27 23 18 13 17 18 18 19 14 7 10 9 5 11 13 15 19 18 16 19 22 23 25 19 18 17 11 11 11 9 12 15 24 23
25 22 28 31 28 25 28 27 30 21 14 14 18 24 24 24 23 20 16 14 15 19 22 28 34 31 29 28 26 26 26 20 17 13 10 14 15 18 19 17 23 29 22
29 29 28 30 30 25 24 28 27 26 29 26 26 23 22 18 25 24 24 23 24 27 34 37 38 38 32 28 28 26 24 22 16 19 12 19 23 31 34 32 28 12 14
24 21 26 24 26 25 26 28 28 29 30 24 24 20 23 27 28 30 33 36 36 37 37 36 30 29 30 30 26 17 12 10 13 19 33 41 46 42 37 36 40 38 37
23 22 25 29 31 36 31 34 31 31 31 28 27 29 34 36 34 34 38 35 30 30 30 31 32 30 29 34 35 37 37 35 40 48 48 41 35 29 23 24 25 29 30
32 31 26 26 33 43 46 43 41 41 37 36 39 38 38 38 38 32 28 26 25 24 24 28 31 35 42 50 46 49 56 50 47 41 36 28 24 23 22 21 20 20 22
31 32 32 35 36 34 41 46 45 43 39 36 34 33 32 33 31 31 31 33 38 50 66 75 73 69 61 47 48 49 37 30 27 25 25 25 24 21 22 22 21 21 22
33 31 31 30 26 28 26 30 29 33 35 35 36 36 36 37 39 42 47 61 60 53 52 48 41 39 37 34 34 34 32 25 27 28 26 24 23 22 22 20 20 23 23
31 33 32 27 26 24 26 31 37 42 54 61 54 49 52 54 59 69 72 57 46 44 40 39 43 47 44 40 37 36 32 29 28 27 26 22 22 24 17 21 21 16 17
37 34 34 37 37 39 44 50 54 57 66 76 84 78 65 62 62 59 51 44 51 51 45 43 42 41 39 35 32 31 30 29 27 27 29 25 22 16 14 17 17 20 21
30 32 36 41 46 46 48 52 60 52 45 41 38 34 34 35 43 50 48 45 43 39 36 38 38 37 36 34 34 28 29 34 33 28 23 21 22 19 20 22 21 20 19
34 42 47 52 53 52 47 40 45 41 43 49 50 51 47 46 47 44 43 44 46 48 43 36 34 33 34 32 33 31 30 29 28 30 26 24 22 22 21 21 21 19 23
39 53 53 48 45 43 44 32 32 40 39 41 41 42 41 39 38 37 35 35 35 34 34 35 32 34 33 34 31 29 28 33 32 31 29 28 23 23 23 23 25 24 24
36 30 32 36 36 34 29 32 38 38 39 38 36 35 34 34 33 33 33 33 33 34 37 39 38 36 36 36 38 37 30 26 32 34 30 28 28 26 25 25 25 25 25
22 27 29 28 23 28 37 35 38 36 33 33 32 33 34 35 36 37 35 35 35 35 35 36 40 42 40 39 39 37 36 35 33 33 29 28 29 27 26 26 27 27 26
22 24 24 18 32 39 30 28 28 30 31 32 33 33 33 33 34 34 33 33 34 34 36 37 34 35 36 36 36 36 31 28 29 31 31 29 25 27 27 26 26 26 28
22 19 26 32 27 24 25 24 26 28 29 28 28 30 31 31 31 32 31 31 30 31 31 32 32 31 31 32 32 30 28 26 26 32 31 26 27 29 25 27 28 26 27
Wind_Direction_850mb
321 317 311 311 315 312 311 310 304 296 292 293 292 292 301 297 298 305 317 314 304 313 317 324 331 332 333 332 324 321 312 309 314 328 293 336 350 355 353 1 25 49 48
321 314 314 308 315 311 310 309 310 312 311 308 305 299 300 302 307 326 318 315 306 299 300 314 317 324 329 335 327 321 316 313 315 319 251 345 9 4 1 10 26 51 60
326 315 313 318 319 321 324 327 335 335 331 327 326 317 313 316 332 328 328 318 315 299 293 310 317 322 319 328 329 318 312 328 318 297 246 24 2 16 17 16 19 43 68
328 326 325 309 320 323 327 336 329 328 326 330 329 323 325 325 317 326 325 321 318 306 297 309 317 310 322 327 330 324 333 330 341 348 129 30 21 26 26 36 44 59 67
333 330 330 319 319 314 317 320 328 338 344 344 338 332 322 330 281 302 306 319 318 316 320 318 318 321 319 326 326 325 325 315 30 355 77 17 24 8 4 28 47 52 71
333 329 328 319 316 318 318 326 330 336 337 345 338 332 350 322 296 294 299 308 317 310 319 325 320 330 315 322 329 339 345 351 93 111 95 59 19 22 25 22 350 351 69
331 333 327 328 335 330 322 339 345 346 343 329 325 321 320 308 302 306 289 292 310 302 323 330 333 315 313 320 336 352 355 40 71 109 98 41 25 35 29 58 85 90 92
333 335 338 344 355 349 336 342 344 337 328 329 327 330 329 341 335 337 313 322 327 346 351 317 322 332 334 355 25 33 82 75 103 121 112 40 49 55 59 78 74 91 96
340 343 346 358 355 355 354 350 338 338 327 326 333 353 17 355 12 22 37 30 34 4 323 326 355 357 35 85 72 95 103 97 115 103 77 62 50 53 51 52 79 97 85
354 357 3 1 352 343 347 339 334 337 340 340 19 22 23 39 15 11 347 21 8 339 11 31 55 76 77 85 82 94 97 96 103 96 83 51 36 18 28 77 95 96 76
354 6 2 353 354 337 345 357 357 1 21 37 55 53 46 37 20 30 41 58 76 68 62 71 76 73 75 77 86 86 82 85 89 87 78 44 39 56 79 83 85 66 43
356 354 358 354 360 21 28 19 30 51 60 61 46 44 30 13 26 54 63 70 78 75 78 79 81 75 76 83 89 86 78 59 63 74 68 86 81 71 86 78 69 89 107
4 355 0 30 44 32 27 35 46 63 65 48 43 33 46 46 60 65 69 71 73 77 76 71 74 67 57 68 65 73 99 116 98 97 92 93 85 73 72 68 64 61 69
23 35 45 59 47 36 52 55 59 60 63 53 57 60 64 66 68 74 73 67 61 63 66 67 62 54 68 67 72 75 81 88 96 91 90 82 61 54 63 57 57 52 59
51 61 45 56 62 59 64 71 67 65 61 63 65 64 65 60 55 55 58 72 79 78 76 79 79 80 79 83 77 79 76 78 80 66 50 53 59 57 53 55 64 66 64
63 51 61 68 71 63 64 63 61 59 56 56 57 64 56 58 56 58 65 75 81 90 91 81 74 72 79 74 58 54 63 65 57 54 52 55 55 56 56 57 55 54 55
57 58 71 73 65 64 49 51 51 52 57 57 61 65 67 71 75 75 82 89 84 79 77 70 68 69 67 67 65 64 60 59 61 59 55 53 55 52 54 51 42 43 48
59 66 70 76 75 62 69 72 79 75 72 65 65 69 76 78 83 86 83 78 63 56 63 67 69 68 64 60 57 55 53 59 52 52 48 45 51 46 39 53 44 38 26
67 60 70 79 82 82 82 83 81 80 74 77 80 82 79 80 75 67 73 66 68 67 66 66 66 63 58 54 56 53 52 52 56 50 47 44 47 41 31 11 27 24 344
67 76 80 84 88 88 90 87 75 72 68 60 56 68 71 61 68 73 74 64 60 57 57 52 50 55 49 47 47 46 43 37 39 38 33 18 15 23 21 11 25 12 14
74 85 84 84 88 91 88 71 70 69 73 70 69 73 76 75 70 64 57 54 50 48 48 48 47 42 40 34 37 35 34 27 23 21 18 13 11 14 11 10 17 19 11
91 90 69 64 77 80 70 70 64 73 72 72 70 70 71 69 66 61 57 54 51 47 43 42 41 39 35 32 31 31 34 30 24 23 22 23 24 22 18 19 20 18 18
87 59 52 60 66 67 70 67 73 71 69 66 66 65 63 61 59 55 52 50 49 47 43 44 44 42 42 38 33 33 37 41 26 27 27 29 29 30 28 27 26 25 21
78 79 71 74 85 87 79 70 67 68 64 63 62 62 61 60 58 55 55 51 49 48 49 46 41 41 46 45 45 42 44 50 55 44 27 30 30 31 29 28 26 25 22
86 73 75 82 105 84 61 65 64 64 64 65 64 63 62 59 58 56 53 51 51 47 44 43 45 40 42 42 41 41 42 50 58 49 39 25 27 27 25 23 20 17 16
77 73 96 106 95 69 62 64 66 65 65 67 65 64 60 58 56 53 50 48 45 42 41 33 30 29 27 26 24 22 27 38 50 48 33 22 24 17 23 15 13 11 8